DW8548 Weather Reports


time (UTC)temp
F
wind
direction
speed
knots
gust
knots
rain 1hr
in
rain 24hr
in
rain mn
in
humidity
%
barometer
mb
20260503020052 57 73 0.9 4.3 0.00 0.00 0.00 82 1026.9
20260503014603 56 0 0.9 5.2 0.00 0.00 0.00 84 1026.9
20260503013056 55 128 0.9 5.2 0.00 0.00 0.00 86 1027.0
20260503011556 54 109 0.9 6.1 0.00 0.00 0.00 88 1027.0
20260503010055 53 92 1.7 4.3 0.00 0.00 0.00 90 1026.9
20260503004552 51 103 0.0 3.5 0.00 0.00 0.00 91 1026.9
20260503003053 49 89 0.9 4.3 0.00 0.00 0.00 91 1026.9
20260503001551 49 123 0.9 4.3 0.00 0.00 0.00 92 1026.7
20260503000054 47 0 0.0 0.0 0.00 0.00 0.00 93 1026.5
20260502234555 45 0 0.0 0.0 0.00 0.00 0.00 92 1026.4
20260502233054 43 0 0.0 0.0 0.00 0.00 0.00 92 1026.1
20260502231605 42 0 0.0 0.0 0.00 0.00 0.00 92 1026.0
20260502230054 42 0 0.0 0.0 0.00 0.00 0.00 92 1025.7
20260502224556 41 0 0.0 0.0 0.00 0.00 0.00 92 1025.5
20260502223057 41 0 0.0 0.0 0.00 0.00 0.00 92 1025.5
20260502221556 41 0 0.0 0.0 0.00 0.00 0.00 92 1025.4
20260502220104 42 0 0.0 0.0 0.00 0.00 0.00 92 1025.3
20260502214558 42 0 0.0 0.0 0.00 0.00 0.00 92 1025.2
20260502213055 42 0 0.0 0.0 0.00 0.00 0.00 92 1025.2
20260502211553 42 0 0.0 0.0 0.00 0.00 0.00 92 1025.0
20260502210101 42 0 0.0 0.0 0.00 0.00 0.00 92 1024.9
20260502204552 43 0 0.0 0.0 0.00 0.00 0.00 92 1024.8
20260502203053 42 0 0.0 0.0 0.00 0.00 0.00 92 1024.7
20260502201603 43 0 0.0 0.0 0.00 0.00 0.00 92 1024.6
20260502200106 43 0 0.0 0.0 0.00 0.00 0.00 91 1024.5
20260502194612 43 0 0.0 0.0 0.00 0.00 0.00 91 1024.5
20260502193056 43 0 0.0 0.0 0.00 0.00 0.00 91 1024.6
20260502191554 43 0 0.0 0.0 0.00 0.00 0.00 91 1024.7
20260502190105 43 0 0.0 0.0 0.00 0.00 0.00 91 1024.7
20260502184559 44 0 0.0 0.0 0.00 0.00 0.00 91 1024.6
20260502183056 44 0 0.0 0.0 0.00 0.00 0.00 91 1024.7
20260502181558 44 0 0.0 0.0 0.00 0.00 0.00 91 1024.7
20260502180125 44 0 0.0 0.0 0.00 0.00 0.00 91 1024.6
20260502163056 46 0 0.0 0.0 0.00 0.00 0.00 90 1024.4
20260502161559 46 0 0.0 0.0 0.00 0.00 0.00 89 1024.4
20260502151608 47 0 0.0 0.0 0.00 0.00 0.00 88 1024.9
20260502130103 50 0 0.0 0.0 0.00 0.00 0.00 85 1024.6
20260502123101 51 0 0.0 0.0 0.00 0.00 0.00 83 1024.6
20260502121603 52 0 0.0 0.0 0.00 0.00 0.00 83 1024.6
20260502114602 52 0 0.0 0.0 0.00 0.00 0.00 83 1024.5
20260502113056 52 0 0.0 0.0 0.00 0.00 0.00 81 1024.4
20260502111602 53 0 0.0 0.0 0.00 0.00 0.00 80 1024.3
20260502110053 54 0 0.0 0.0 0.00 0.00 0.00 78 1024.3
20260502104558 54 0 0.0 0.0 0.00 0.00 0.00 76 1024.3
20260502103106 55 0 0.0 0.0 0.00 0.00 0.00 75 1024.1
20260502101620 56 0 0.0 0.0 0.00 0.00 0.00 73 1024.0
20260502100116 57 0 0.0 0.9 0.00 0.00 0.00 71 1023.9
20260502080105 63 91 0.0 5.2 0.00 0.00 0.00 55 1023.5
20260502070053 64 171 1.7 7.0 0.00 0.00 0.00 53 1023.5
20260502064559 64 0 1.7 5.2 0.00 0.00 0.00 54 1023.5
20260502063100 64 60 0.9 6.1 0.00 0.00 0.00 54 1023.4
20260502061555 64 67 0.0 2.6 0.00 0.00 0.00 57 1023.6
20260502060107 63 102 0.0 5.2 0.00 0.00 0.00 57 1023.7
20260502054553 62 219 0.0 4.3 0.00 0.00 0.00 56 1023.7
20260502053101 63 93 1.7 6.1 0.00 0.00 0.00 55 1024.1
20260502051601 64 163 0.9 4.3 0.00 0.00 0.00 55 1024.3
20260502050058 63 0 0.9 6.1 0.00 0.00 0.00 58 1024.6
20260502044553 63 101 0.9 7.8 0.00 0.00 0.00 56 1024.9
20260502043056 62 73 1.7 4.3 0.00 0.00 0.00 58 1025.2
20260502041553 61 186 0.9 4.3 0.00 0.00 0.00 59 1025.6
20260502040055 61 0 0.9 6.1 0.00 0.00 0.00 60 1025.8
20260502034556 62 257 1.7 6.1 0.00 0.00 0.00 57 1025.9
20260502033056 61 69 0.9 6.1 0.00 0.00 0.00 58 1026.0
20260502031557 60 266 1.7 5.2 0.00 0.00 0.00 59 1026.1
20260502030057 60 175 1.7 4.3 0.00 0.00 0.00 64 1026.3
20260502024559 59 142 0.9 4.3 0.00 0.00 0.00 65 1026.4
20260502023102 59 83 0.9 4.3 0.00 0.00 0.00 67 1026.5
20260502021555 57 254 1.7 5.2 0.00 0.00 0.00 68 1026.4